(352853) = 2008 WZ60

Discovered at Socorro on 2008-11-20 by LINEAR.

Orbit

Orbit type: Main Belt

Note: WebGL enabled browser required.

epoch2024-03-31.0
epoch JD2460400.5
perihelion date2024-03-25.76626
perihelion JD2460395.26626
argument of perihelion (°)221.77817
ascending node (°)247.82250
inclination (°)4.51069
eccentricity0.1857716
perihelion distance (AU)1.9647514
Tisserand w.r.t. Jupiter3.5
ΔV w.r.t. Earth (km/sec)8.9
semimajor axis (AU)2.4130225
mean anomaly (°)1.37618
mean daily motion (°/day)0.26294310
aphelion distance (AU)2.861
period (years)3.75
P-vector [x]-0.33355169
P-vector [y]0.88444493
P-vector [z]0.32634404
Q-vector [x]-0.93991463
Q-vector [y]-0.28525202
Q-vector [z]-0.18759469
absolute magnitude17.55
phase slope0.15
uncertainty0
referenceMPEC 2024-E140
observations used315
oppositions12
arc length (days)11015
first opposition used1994
last opposition used2024
residual rms (arc-secs)0.63
perturbers coarse indicatorM-v
perturbers precise indicator003Ek
first observation date used1994-01-09.0
last observation date used2024-03-07.0
computer nameMPCLINUX
JD of orbit computation2456303.500858
perihelion JD uncertainty (days)7.3696E-05
argument of perihelion uncertainty (°)7.4077E-05
ascending node uncertainty (°)6.9584E-05
inclination uncertainty (°)7.8050E-06
eccentricity uncertainty 7.3215E-08
perihelion distance uncertainty (AU)1.7292E-07
Minimum Orbit Intersection Distances (in AU)
for orbit epoch: 2460400.5, reference: E2024-EE0
Mercury1.65138
Venus1.24974
Earth0.98462
Mars0.37466
Jupiter2.27812
Saturn7.00911
Uranus16.222
Neptune27.3248

Observations

321 total observations over interval: 1994 01 09.14362 – 2024 03 07.55571
These data are available for download (format description).

Date (UT) J2000 RA J2000 Dec Magn Location Ref
1994 01 09.14362 03 39 03.22 +18 02 58.0   691 – Steward Observatory, Kitt Peak-Spacewatch MPS 270495
1994 01 09.17711 03 39 03.51 +18 02 55.3 19.9 V 691 – Steward Observatory, Kitt Peak-Spacewatch MPS 270495
1998 02 02.17909 07 34 47.90 +14 26 23.7 20.0 V 691 – Steward Observatory, Kitt Peak-Spacewatch MPS 270495
1998 02 02.20057 07 34 46.85 +14 26 25.5 20.2 V 691 – Steward Observatory, Kitt Peak-Spacewatch MPS 270495
1998 02 02.22216 07 34 45.80 +14 26 27.5 20.2 V 691 – Steward Observatory, Kitt Peak-Spacewatch MPS 270495
2000 10 02.307870 22 55 20.871 +00 33 51.92 21.64 V 645 – Apache Point-Sloan Digital Sky Survey MPS 270495
2000 10 02.311342 22 55 20.732 +00 33 50.52 22.44   645 – Apache Point-Sloan Digital Sky Survey MPS 270495
2006 05 07.24897 13 22 31.94 -13 16 54.0 21.6 V G96 – Mt. Lemmon Survey MPS 270495
2006 05 07.25447 13 22 31.62 -13 16 52.1 21.4 V G96 – Mt. Lemmon Survey MPS 270495
2006 05 07.25998 13 22 31.44 -13 16 50.8 21.4 V G96 – Mt. Lemmon Survey MPS 270495
2006 05 07.26560 13 22 31.22 -13 16 47.4 20.7 V G96 – Mt. Lemmon Survey MPS 270495
2008 10 03.46819 04 23 20.43 +24 14 00.0 20.4 V G96 – Mt. Lemmon Survey MPS 270495
2008 10 03.47222 04 23 20.54 +24 14 00.0 20.5 V G96 – Mt. Lemmon Survey MPS 270495
2008 10 03.47625 04 23 20.65 +24 14 00.1 20.3 V G96 – Mt. Lemmon Survey MPS 270495
2008 10 03.48049 04 23 20.76 +24 14 00.3 20.3 V G96 – Mt. Lemmon Survey MPS 270495
2008 10 21.44023 04 25 32.23 +23 55 02.7 20.2 V 691 – Steward Observatory, Kitt Peak-Spacewatch MPS 268845
2008 10 21.45789 04 25 32.01 +23 55 00.7 20.1 V 691 – Steward Observatory, Kitt Peak-Spacewatch MPS 268845
2008 10 21.47556 04 25 31.74 +23 54 58.0 20.1 V 691 – Steward Observatory, Kitt Peak-Spacewatch MPS 268845
2008 11 02.39159 04 20 39.52 +23 20 11.3   691 – Steward Observatory, Kitt Peak-Spacewatch MPS 268845
2008 11 02.40675 04 20 39.00 +23 20 06.7   691 – Steward Observatory, Kitt Peak-Spacewatch MPS 268845
2008 11 02.42190 04 20 38.39 +23 20 02.8   691 – Steward Observatory, Kitt Peak-Spacewatch MPS 268845
2008 11 05.65739 04 18 29.98 +23 07 20.0 19.7 R 300 – Bisei Spaceguard Center-BATTeRS MPS 272783
2008 11 05.66004 04 18 29.80 +23 07 19.3 19.6 R 300 – Bisei Spaceguard Center-BATTeRS MPS 272783
2008 11 05.66270 04 18 29.72 +23 07 17.9 19.4 R 300 – Bisei Spaceguard Center-BATTeRS MPS 272783
2008 11 05.66535 04 18 29.62 +23 07 17.2 19.5 R 300 – Bisei Spaceguard Center-BATTeRS MPS 272783
2008 11 05.66803 04 18 29.49 +23 07 17.2 19.6 R 300 – Bisei Spaceguard Center-BATTeRS MPS 272783
2008 11 05.67070 04 18 29.37 +23 07 16.3 19.2 R 300 – Bisei Spaceguard Center-BATTeRS MPS 272783
2008 11 05.67336 04 18 29.27 +23 07 16.5 19.3 R 300 – Bisei Spaceguard Center-BATTeRS MPS 272783
2008 11 06.37874 04 17 58.57 +23 04 18.8 20.4 V 691 – Steward Observatory, Kitt Peak-Spacewatch MPS 268845
2008 11 06.39637 04 17 57.74 +23 04 15.1 20.0 V 691 – Steward Observatory, Kitt Peak-Spacewatch MPS 268845
2008 11 06.41401 04 17 56.96 +23 04 10.6 20.8 V 691 – Steward Observatory, Kitt Peak-Spacewatch MPS 268845
2008 11 18.22606 04 07 40.36 +22 05 39.7 19.7 V 691 – Steward Observatory, Kitt Peak-Spacewatch MPS 267747
2008 11 18.24369 04 07 39.27 +22 05 34.0 19.7 V 691 – Steward Observatory, Kitt Peak-Spacewatch MPS 267747
2008 11 18.26132 04 07 38.20 +22 05 28.1 19.7 V 691 – Steward Observatory, Kitt Peak-Spacewatch MPS 267747
2008 11 20.33008 04 05 35.03 +21 53 43.2 18.9   704 – Lincoln Laboratory ETS, New Mexico MPS 266592
2008 11 20.34259 04 05 34.16 +21 53 38.1 19.5   704 – Lincoln Laboratory ETS, New Mexico MPS 266592
2008 11 20.35516 04 05 33.42 +21 53 34.6 19.4   704 – Lincoln Laboratory ETS, New Mexico MPS 266592
2008 11 20.36774 04 05 32.59 +21 53 29.8 19.3   704 – Lincoln Laboratory ETS, New Mexico MPS 266592
2008 11 20.38035 04 05 31.84 +21 53 26.1 19.2   704 – Lincoln Laboratory ETS, New Mexico MPS 266592
2008 11 23.88524 04 01 59.22 +21 32 42.5 19.2 V J75 – OAM Observatory, La Sagra MPS 266592
2008 11 23.89859 04 01 58.33 +21 32 38.0 19.2 V J75 – OAM Observatory, La Sagra MPS 266592
2008 11 23.91190 04 01 57.46 +21 32 32.8 19.2 V J75 – OAM Observatory, La Sagra MPS 266592
2008 11 24.25522 04 01 36.34 +21 30 29.1 19.6   704 – Lincoln Laboratory ETS, New Mexico MPS 266592
2008 11 24.26775 04 01 35.54 +21 30 25.7 19.3   704 – Lincoln Laboratory ETS, New Mexico MPS 266592
2008 11 24.28030 04 01 34.75 +21 30 20.8 19.7   704 – Lincoln Laboratory ETS, New Mexico MPS 266592
2008 11 24.29299 04 01 33.92 +21 30 16.4 19.6   704 – Lincoln Laboratory ETS, New Mexico MPS 266592
2008 11 25.90828 03 59 55.01 +21 20 25.6 19.3 V J75 – OAM Observatory, La Sagra MPS 267747
2008 11 25.92171 03 59 54.12 +21 20 20.6 19.2 V J75 – OAM Observatory, La Sagra MPS 267747
2008 11 25.93513 03 59 53.28 +21 20 16.3 19.0 V J75 – OAM Observatory, La Sagra MPS 267747
2008 12 02.11382 03 53 40.16 +20 42 01.2 19.6 V 691 – Steward Observatory, Kitt Peak-Spacewatch MPS 267747
2008 12 02.13148 03 53 39.10 +20 41 54.9 19.6 V 691 – Steward Observatory, Kitt Peak-Spacewatch MPS 267747
2008 12 02.13679 03 53 38.75 +20 41 52.2 19.2   704 – Lincoln Laboratory ETS, New Mexico MPS 267747
2008 12 02.14911 03 53 38.02 +20 41 48.4 19.6 V 691 – Steward Observatory, Kitt Peak-Spacewatch MPS 267747
2008 12 02.14931 03 53 37.88 +20 41 45.6 19.8   704 – Lincoln Laboratory ETS, New Mexico MPS 267747
2008 12 02.16181 03 53 37.25 +20 41 42.9 19.7   704 – Lincoln Laboratory ETS, New Mexico MPS 267747
2008 12 02.17433 03 53 36.48 +20 41 38.8 19.5   704 – Lincoln Laboratory ETS, New Mexico MPS 267747
2008 12 02.25193 03 53 31.66 +20 41 10.0 19.7   704 – Lincoln Laboratory ETS, New Mexico MPS 267747
2008 12 02.26461 03 53 30.85 +20 41 06.1 19.9   704 – Lincoln Laboratory ETS, New Mexico MPS 267747
2008 12 02.27719 03 53 30.11 +20 41 02.4 20.2   704 – Lincoln Laboratory ETS, New Mexico MPS 267747
2008 12 02.30241 03 53 28.62 +20 40 52.3 20.2   704 – Lincoln Laboratory ETS, New Mexico MPS 267747
2008 12 21.19573 03 38 56.78 +18 54 28.5 20.2   704 – Lincoln Laboratory ETS, New Mexico MPS 269340
2008 12 21.20849 03 38 56.39 +18 54 24.5 20.0   704 – Lincoln Laboratory ETS, New Mexico MPS 269340
2008 12 21.23418 03 38 55.54 +18 54 16.8 20.4   704 – Lincoln Laboratory ETS, New Mexico MPS 269340
2008 12 21.24706 03 38 55.10 +18 54 13.9 20.4   704 – Lincoln Laboratory ETS, New Mexico MPS 269340
2008 12 21.26425 03 38 54.63 +18 54 08.7 20.0 V G96 – Mt. Lemmon Survey MPS 269340
2008 12 21.26870 03 38 54.49 +18 54 07.4 20.1 V G96 – Mt. Lemmon Survey MPS 269340
2008 12 21.27312 03 38 54.34 +18 54 06.0 20.1 V G96 – Mt. Lemmon Survey MPS 269340
2008 12 21.27753 03 38 54.20 +18 54 05.3 20.0 V G96 – Mt. Lemmon Survey MPS 269340
2009 02 20.13396 04 13 41.77 +18 42 40.9 20.6 V G96 – Mt. Lemmon Survey MPS 277640
2009 02 20.14004 04 13 42.27 +18 42 41.4 20.7 V G96 – Mt. Lemmon Survey MPS 277640
2009 02 20.14618 04 13 42.85 +18 42 42.5 20.1 V G96 – Mt. Lemmon Survey MPS 277640
2009 02 20.15233 04 13 43.35 +18 42 43.8 20.5 V G96 – Mt. Lemmon Survey MPS 277640
2010 05 18.406706 15 40 06.895 -20 56 11.49 21.01 r F51 – Pan-STARRS 1, Haleakala MPS 337424
2010 05 18.417617 15 40 06.190 -20 56 08.36 21.22 r F51 – Pan-STARRS 1, Haleakala MPS 337424
2010 05 20.30549 15 38 11.50 -20 46 35.8 20.4 V G96 – Mt. Lemmon Survey MPS 327470
2010 05 20.31369 15 38 11.00 -20 46 33.1 20.4 V G96 – Mt. Lemmon Survey MPS 327470
2010 05 20.32204 15 38 10.50 -20 46 30.8 20.5 V G96 – Mt. Lemmon Survey MPS 327470
2010 05 20.33044 15 38 09.96 -20 46 28.6 20.5 V G96 – Mt. Lemmon Survey MPS 327470
2012 12 12.40173 08 20 54.10 +14 46 52.7 20.3 V 691 – Steward Observatory, Kitt Peak-Spacewatch MPS 446049
2012 12 12.40935 08 20 54.04 +14 46 50.9 20.0 V 691 – Steward Observatory, Kitt Peak-Spacewatch MPS 446049
2012 12 12.41956 08 20 53.94 +14 46 48.3 20.0 V 691 – Steward Observatory, Kitt Peak-Spacewatch MPS 446049
2012 12 12.42720 08 20 53.88 +14 46 46.6 19.9 V 691 – Steward Observatory, Kitt Peak-Spacewatch MPS 446049
2012 12 12.43742 08 20 53.80 +14 46 43.5 20.0 V 691 – Steward Observatory, Kitt Peak-Spacewatch MPS 446049
2012 12 12.44504 08 20 53.72 +14 46 41.8 20.1 V 691 – Steward Observatory, Kitt Peak-Spacewatch MPS 446049
